Time,TemperatureF,DewpointF,PressureIn,WindDirection,WindDirectionDegrees,WindSpeedMPH,WindSpeedGustMPH,Humidity,HourlyPrecipIn,Conditions,Clouds,dailyrainin,SoftwareType,DateUTC
2013-09-17 00:01:00,51.6,40.6,30.23,North,11,9.0,16.0,66,0.00,,,0.02,meteohub,2013-09-17 04:01:00,
2013-09-17 00:02:00,51.6,40.6,30.23,North,0,9.0,16.0,66,0.00,,,0.02,meteohub,2013-09-17 04:02:00,
2013-09-17 00:07:00,51.4,40.5,30.23,North,352,13.0,16.0,66,0.00,,,0.00,meteohub,2013-09-17 04:07:00,
2013-09-17 00:12:00,51.3,40.3,30.24,NW,314,10.0,16.0,66,0.00,,,0.00,meteohub,2013-09-17 04:12:00,
2013-09-17 00:17:00,51.1,40.1,30.24,NNW,342,8.0,16.0,66,0.00,,,0.00,meteohub,2013-09-17 04:17:00,
2013-09-17 00:22:00,50.7,40.1,30.24,North,350,9.0,16.0,67,0.00,,,0.00,meteohub,2013-09-17 04:22:00,
2013-09-17 00:27:00,50.5,39.9,30.24,NW,320,10.0,15.0,67,0.00,,,0.00,meteohub,2013-09-17 04:27:00,
2013-09-17 00:32:00,50.5,39.9,30.24,NNW,333,8.0,16.0,67,0.00,,,0.00,meteohub,2013-09-17 04:32:00,
2013-09-17 00:37:00,50.4,39.7,30.24,NNW,348,7.0,18.0,67,0.00,,,0.00,meteohub,2013-09-17 04:37:00,
2013-09-17 00:42:00,50.4,39.7,30.24,NW,322,8.0,18.0,67,0.00,,,0.00,meteohub,2013-09-17 04:42:00,
2013-09-17 00:47:00,50.2,40.1,30.25,North,4,11.0,20.0,68,0.00,,,0.00,meteohub,2013-09-17 04:47:00,
2013-09-17 00:52:00,50.0,39.9,30.25,NE,37,13.0,20.0,68,0.00,,,0.00,meteohub,2013-09-17 04:52:00,
2013-09-17 00:57:00,49.8,39.7,30.25,NE,39,2.0,19.0,68,0.00,,,0.00,meteohub,2013-09-17 04:57:00,
2013-09-17 01:02:00,49.6,39.6,30.25,NNW,342,7.0,17.0,68,0.00,,,0.00,meteohub,2013-09-17 05:02:00,
2013-09-17 01:07:00,49.5,39.4,30.25,NNW,345,9.0,16.0,68,0.00,,,0.00,meteohub,2013-09-17 05:07:00,
2013-09-17 01:12:00,49.3,39.6,30.25,NNW,346,6.0,14.0,69,0.00,,,0.00,meteohub,2013-09-17 05:12:00,
2013-09-17 01:17:00,49.3,39.6,30.25,NNW,328,2.0,15.0,69,0.00,,,0.00,meteohub,2013-09-17 05:17:00,
2013-09-17 01:22:00,49.1,39.4,30.26,NNW,340,11.0,15.0,69,0.00,,,0.00,meteohub,2013-09-17 05:22:00,
2013-09-17 01:27:00,48.9,39.6,30.26,NNW,329,6.0,15.0,70,0.00,,,0.00,meteohub,2013-09-17 05:27:00,
2013-09-17 01:33:00,48.7,39.4,30.26,North,350,8.0,17.0,70,0.00,,,0.00,meteohub,2013-09-17 05:33:00,
2013-09-17 01:38:00,48.7,39.4,30.26,NW,314,6.0,18.0,70,0.00,,,0.00,meteohub,2013-09-17 05:38:00,
2013-09-17 01:43:00,48.6,39.2,30.26,NNW,328,12.0,18.0,70,0.00,,,0.00,meteohub,2013-09-17 05:43:00,
2013-09-17 01:48:00,48.6,39.2,30.26,NNW,333,6.0,16.0,70,0.00,,,0.00,meteohub,2013-09-17 05:48:00,
2013-09-17 01:53:00,48.4,39.4,30.26,NNE,16,6.0,16.0,71,0.00,,,0.00,meteohub,2013-09-17 05:53:00,
2013-09-17 01:58:00,48.2,39.2,30.26,NW,324,6.0,15.0,71,0.00,,,0.00,meteohub,2013-09-17 05:58:00,
2013-09-17 02:03:00,48.0,39.0,30.26,NNE,23,5.0,16.0,71,0.00,,,0.00,meteohub,2013-09-17 06:03:00,
2013-09-17 02:08:00,47.8,39.2,30.27,North,352,7.0,16.0,72,0.00,,,0.00,meteohub,2013-09-17 06:08:00,
2013-09-17 02:13:00,47.7,39.0,30.27,NW,324,9.0,16.0,72,0.00,,,0.00,meteohub,2013-09-17 06:13:00,
2013-09-17 02:18:00,47.7,39.0,30.27,NW,318,8.0,15.0,72,0.00,,,0.00,meteohub,2013-09-17 06:18:00,
2013-09-17 02:23:00,47.5,39.2,30.27,North,358,5.0,14.0,73,0.00,,,0.00,meteohub,2013-09-17 06:23:00,
2013-09-17 02:28:00,47.5,39.2,30.27,North,358,9.0,14.0,73,0.00,,,0.00,meteohub,2013-09-17 06:28:00,
2013-09-17 02:33:00,47.3,39.0,30.27,NNW,335,5.0,14.0,73,0.00,,,0.00,meteohub,2013-09-17 06:33:00,
2013-09-17 02:38:00,47.1,39.2,30.28,NNE,19,11.0,13.0,74,0.00,,,0.00,meteohub,2013-09-17 06:38:00,
2013-09-17 02:43:00,47.1,39.2,30.28,NNW,342,5.0,16.0,74,0.00,,,0.00,meteohub,2013-09-17 06:43:00,
2013-09-17 02:48:00,47.1,39.2,30.28,NNW,342,3.0,16.0,74,0.00,,,0.00,meteohub,2013-09-17 06:48:00,
2013-09-17 02:53:00,46.9,39.0,30.28,NNW,342,11.0,16.0,74,0.00,,,0.00,meteohub,2013-09-17 06:53:00,
2013-09-17 02:58:00,46.9,39.0,30.28,North,354,11.0,14.0,74,0.00,,,0.00,meteohub,2013-09-17 06:58:00,
2013-09-17 03:03:00,46.8,39.2,30.29,NNW,335,3.0,15.0,75,0.00,,,0.00,meteohub,2013-09-17 07:03:00,
2013-09-17 03:08:00,46.6,39.0,30.29,NNW,342,9.0,15.0,75,0.00,,,0.00,meteohub,2013-09-17 07:08:00,
2013-09-17 03:13:00,46.6,39.0,30.29,NNW,338,6.0,15.0,75,0.00,,,0.00,meteohub,2013-09-17 07:13:00,
2013-09-17 03:18:00,46.4,38.8,30.29,NNW,333,3.0,13.0,75,0.00,,,0.00,meteohub,2013-09-17 07:18:00,
2013-09-17 03:23:00,46.2,39.0,30.29,North,352,6.0,13.0,76,0.00,,,0.00,meteohub,2013-09-17 07:23:00,
2013-09-17 03:28:00,46.2,39.0,30.29,NNW,342,4.0,13.0,76,0.00,,,0.00,meteohub,2013-09-17 07:28:00,
2013-09-17 03:33:00,46.2,39.0,30.29,North,356,4.0,14.0,76,0.00,,,0.00,meteohub,2013-09-17 07:33:00,
2013-09-17 03:38:00,46.0,38.8,30.29,NW,319,6.0,14.0,76,0.00,,,0.00,meteohub,2013-09-17 07:38:00,
2013-09-17 03:43:00,46.0,38.8,30.29,NNW,345,6.0,14.0,76,0.00,,,0.00,meteohub,2013-09-17 07:43:00,
2013-09-17 03:48:00,45.9,38.7,30.29,NNW,346,7.0,13.0,76,0.00,,,0.00,meteohub,2013-09-17 07:48:00,
2013-09-17 03:53:00,45.9,38.7,30.30,North,353,6.0,13.0,76,0.00,,,0.00,meteohub,2013-09-17 07:53:00,
2013-09-17 03:58:00,45.9,38.7,30.30,NNW,333,6.0,16.0,76,0.00,,,0.00,meteohub,2013-09-17 07:58:00,
2013-09-17 04:03:00,45.9,38.7,30.30,North,6,6.0,16.0,76,0.00,,,0.00,meteohub,2013-09-17 08:03:00,
2013-09-17 04:08:00,45.9,38.7,30.30,NNW,330,4.0,16.0,76,0.00,,,0.00,meteohub,2013-09-17 08:08:00,
2013-09-17 04:13:00,45.9,38.7,30.30,North,354,7.0,12.0,76,0.00,,,0.00,meteohub,2013-09-17 08:13:00,
2013-09-17 04:18:00,45.9,38.7,30.30,NNW,348,3.0,12.0,76,0.00,,,0.00,meteohub,2013-09-17 08:18:00,
2013-09-17 04:23:00,45.9,38.3,30.30,NW,325,7.0,12.0,75,0.00,,,0.00,meteohub,2013-09-17 08:23:00,
2013-09-17 04:28:00,45.7,38.3,30.30,NNW,340,4.0,11.0,75,0.00,,,0.00,meteohub,2013-09-17 08:28:00,
2013-09-17 04:33:00,45.7,38.5,30.30,NNW,333,1.0,12.0,76,0.00,,,0.00,meteohub,2013-09-17 08:33:00,
2013-09-17 04:38:00,45.7,38.5,30.30,NNW,330,3.0,12.0,76,0.00,,,0.00,meteohub,2013-09-17 08:38:00,
2013-09-17 04:43:00,45.5,38.3,30.30,NNE,32,7.0,10.0,76,0.00,,,0.00,meteohub,2013-09-17 08:43:00,
2013-09-17 04:48:00,45.3,38.1,30.30,NNW,342,5.0,10.0,76,0.00,,,0.00,meteohub,2013-09-17 08:48:00,
2013-09-17 04:53:00,45.3,38.1,30.31,NNW,347,7.0,10.0,76,0.00,,,0.00,meteohub,2013-09-17 08:53:00,
2013-09-17 04:58:00,45.3,38.1,30.31,NNW,334,1.0,10.0,76,0.00,,,0.00,meteohub,2013-09-17 08:58:00,
2013-09-17 05:03:00,45.1,37.9,30.31,NE,43,3.0,11.0,76,0.00,,,0.00,meteohub,2013-09-17 09:03:00,
2013-09-17 05:08:00,45.1,37.9,30.31,NW,312,2.0,11.0,76,0.00,,,0.00,meteohub,2013-09-17 09:08:00,
2013-09-17 05:13:00,45.0,38.1,30.32,WNW,293,2.0,11.0,77,0.00,,,0.00,meteohub,2013-09-17 09:13:00,
2013-09-17 05:18:00,45.0,38.1,30.32,North,8,4.0,9.0,77,0.00,,,0.00,meteohub,2013-09-17 09:18:00,
2013-09-17 05:23:00,44.8,37.9,30.32,NNW,342,4.0,10.0,77,0.00,,,0.00,meteohub,2013-09-17 09:23:00,
2013-09-17 05:28:00,44.8,37.9,30.32,NNW,337,6.0,10.0,77,0.00,,,0.00,meteohub,2013-09-17 09:28:00,
2013-09-17 05:33:00,44.6,37.8,30.32,NNW,330,3.0,14.0,77,0.00,,,0.00,meteohub,2013-09-17 09:33:00,
2013-09-17 05:38:00,44.4,37.9,30.32,NNW,338,7.0,14.0,78,0.00,,,0.00,meteohub,2013-09-17 09:38:00,
2013-09-17 05:43:00,44.4,37.9,30.32,NW,304,5.0,14.0,78,0.00,,,0.00,meteohub,2013-09-17 09:43:00,
2013-09-17 05:48:00,44.4,37.9,30.32,NNE,23,4.0,14.0,78,0.00,,,0.00,meteohub,2013-09-17 09:48:00,
2013-09-17 05:53:00,44.2,37.8,30.32,North,352,3.0,11.0,78,0.00,,,0.00,meteohub,2013-09-17 09:53:00,
2013-09-17 05:58:00,44.1,37.6,30.32,NNW,348,5.0,12.0,78,0.00,,,0.00,meteohub,2013-09-17 09:58:00,
2013-09-17 06:03:00,44.1,37.9,30.33,NNW,330,9.0,12.0,79,0.00,,,0.00,meteohub,2013-09-17 10:03:00,
2013-09-17 06:08:00,44.1,37.9,30.33,NW,314,6.0,13.0,79,0.00,,,0.00,meteohub,2013-09-17 10:08:00,
2013-09-17 06:14:00,43.9,37.8,30.33,North,9,8.0,13.0,79,0.00,,,0.00,meteohub,2013-09-17 10:14:00,
2013-09-17 06:19:00,43.9,37.8,30.34,NNW,338,5.0,13.0,79,0.00,,,0.00,meteohub,2013-09-17 10:19:00,
2013-09-17 06:24:00,43.9,37.8,30.34,North,4,8.0,11.0,79,0.00,,,0.00,meteohub,2013-09-17 10:24:00,
2013-09-17 06:29:00,43.7,37.9,30.35,NNW,340,6.0,11.0,80,0.00,,,0.00,meteohub,2013-09-17 10:29:00,
2013-09-17 06:34:00,43.7,37.9,30.35,NW,325,3.0,12.0,80,0.00,,,0.00,meteohub,2013-09-17 10:34:00,
2013-09-17 06:39:00,43.7,37.9,30.35,NNE,20,6.0,12.0,80,0.00,,,0.00,meteohub,2013-09-17 10:39:00,
2013-09-17 06:44:00,43.7,37.9,30.35,NNW,340,3.0,14.0,80,0.00,,,0.00,meteohub,2013-09-17 10:44:00,
2013-09-17 06:49:00,43.7,37.9,30.35,NNE,15,4.0,14.0,80,0.00,,,0.00,meteohub,2013-09-17 10:49:00,
2013-09-17 06:54:00,43.9,38.1,30.35,NNW,343,6.0,11.0,80,0.00,,,0.00,meteohub,2013-09-17 10:54:00,
2013-09-17 06:59:00,44.1,37.9,30.36,North,352,5.0,11.0,79,0.00,,,0.00,meteohub,2013-09-17 10:59:00,
2013-09-17 07:04:00,44.4,38.3,30.36,North,352,9.0,11.0,79,0.00,,,0.00,meteohub,2013-09-17 11:04:00,
2013-09-17 07:09:00,44.4,38.3,30.36,North,358,6.0,10.0,79,0.00,,,0.00,meteohub,2013-09-17 11:09:00,
2013-09-17 07:14:00,44.8,38.3,30.36,NNW,342,8.0,12.0,78,0.00,,,0.00,meteohub,2013-09-17 11:14:00,
2013-09-17 07:19:00,45.0,38.5,30.37,NNW,342,6.0,12.0,78,0.00,,,0.00,meteohub,2013-09-17 11:19:00,
2013-09-17 07:24:00,45.1,38.3,30.37,NNE,23,9.0,12.0,77,0.00,,,0.00,meteohub,2013-09-17 11:24:00,
2013-09-17 07:29:00,45.3,38.5,30.37,NNW,340,7.0,12.0,77,0.00,,,0.00,meteohub,2013-09-17 11:29:00,
2013-09-17 07:34:00,45.7,38.5,30.37,NW,314,6.0,12.0,76,0.00,,,0.00,meteohub,2013-09-17 11:34:00,
2013-09-17 07:39:00,45.9,38.7,30.37,NNW,336,7.0,13.0,76,0.00,,,0.00,meteohub,2013-09-17 11:39:00,
2013-09-17 07:44:00,46.0,38.5,30.37,NW,316,7.0,14.0,75,0.00,,,0.00,meteohub,2013-09-17 11:44:00,
2013-09-17 07:49:00,46.4,38.5,30.37,North,11,6.0,14.0,74,0.00,,,0.00,meteohub,2013-09-17 11:49:00,
2013-09-17 07:54:00,46.8,38.8,30.37,NNW,345,10.0,14.0,74,0.00,,,0.00,meteohub,2013-09-17 11:54:00,
2013-09-17 07:59:00,46.9,38.7,30.38,NNW,333,6.0,13.0,73,0.00,,,0.00,meteohub,2013-09-17 11:59:00,
2013-09-17 08:04:00,47.1,38.8,30.38,NNW,333,10.0,15.0,73,0.00,,,0.00,meteohub,2013-09-17 12:04:00,
2013-09-17 08:09:00,47.7,39.4,30.38,NW,319,6.0,15.0,73,0.00,,,0.00,meteohub,2013-09-17 12:09:00,
2013-09-17 08:14:00,47.8,39.2,30.38,NNE,18,6.0,15.0,72,0.00,,,0.00,meteohub,2013-09-17 12:14:00,
2013-09-17 08:19:00,48.4,39.7,30.38,NNW,340,7.0,15.0,72,0.00,,,0.00,meteohub,2013-09-17 12:19:00,
2013-09-17 08:24:00,48.6,39.6,30.38,NNW,328,8.0,15.0,71,0.00,,,0.00,meteohub,2013-09-17 12:24:00,
2013-09-17 08:29:00,48.9,39.6,30.38,NNW,330,8.0,15.0,70,0.00,,,0.00,meteohub,2013-09-17 12:29:00,
2013-09-17 08:35:00,49.1,39.7,30.39,North,352,7.0,15.0,70,0.00,,,0.00,meteohub,2013-09-17 12:35:00,
2013-09-17 08:40:00,49.6,39.9,30.39,NNE,33,11.0,17.0,69,0.00,,,0.00,meteohub,2013-09-17 12:40:00,
2013-09-17 08:45:00,49.8,40.1,30.39,NW,320,6.0,20.0,69,0.00,,,0.00,meteohub,2013-09-17 12:45:00,
2013-09-17 08:50:00,50.4,40.6,30.39,NNE,30,14.0,20.0,69,0.00,,,0.00,meteohub,2013-09-17 12:50:00,
2013-09-17 08:55:00,50.5,40.8,30.39,WNW,284,5.0,20.0,69,0.00,,,0.00,meteohub,2013-09-17 12:55:00,
2013-09-17 09:00:00,50.9,40.6,30.39,NE,36,5.0,18.0,68,0.00,,,0.00,meteohub,2013-09-17 13:00:00,
2013-09-17 09:05:00,51.1,41.2,30.40,North,349,8.0,18.0,69,0.00,,,0.00,meteohub,2013-09-17 13:05:00,
2013-09-17 09:10:00,51.3,41.0,30.40,NNE,22,8.0,18.0,68,0.00,,,0.00,meteohub,2013-09-17 13:10:00,
2013-09-17 09:15:00,51.6,41.7,30.40,NNW,328,12.0,18.0,69,0.00,,,0.00,meteohub,2013-09-17 13:15:00,
2013-09-17 09:20:00,52.0,42.1,30.40,NE,47,5.0,18.0,69,0.00,,,0.00,meteohub,2013-09-17 13:20:00,
2013-09-17 09:25:00,52.2,42.3,30.40,NNE,20,5.0,18.0,69,0.00,,,0.00,meteohub,2013-09-17 13:25:00,
2013-09-17 09:30:00,52.5,42.6,30.40,NW,318,7.0,18.0,69,0.00,,,0.00,meteohub,2013-09-17 13:30:00,
2013-09-17 09:35:00,52.3,41.7,30.40,NNE,29,9.0,17.0,67,0.00,,,0.00,meteohub,2013-09-17 13:35:00,
2013-09-17 09:40:00,52.5,41.9,30.40,NNW,337,13.0,18.0,67,0.00,,,0.00,meteohub,2013-09-17 13:40:00,
2013-09-17 09:45:00,52.5,41.9,30.41,ENE,66,10.0,19.0,67,0.00,,,0.00,meteohub,2013-09-17 13:45:00,
2013-09-17 09:50:00,52.5,41.2,30.41,NE,49,5.0,19.0,65,0.00,,,0.00,meteohub,2013-09-17 13:50:00,
2013-09-17 09:55:00,52.5,41.2,30.41,NNE,20,16.0,21.0,65,0.00,,,0.00,meteohub,2013-09-17 13:55:00,
2013-09-17 10:00:00,52.9,41.4,30.41,NNW,330,11.0,22.0,65,0.00,,,0.00,meteohub,2013-09-17 14:00:00,
2013-09-17 10:05:00,53.2,41.4,30.41,NNE,15,3.0,22.0,64,0.00,,,0.00,meteohub,2013-09-17 14:05:00,
2013-09-17 10:10:00,53.2,41.4,30.41,NNE,26,10.0,22.0,64,0.00,,,0.00,meteohub,2013-09-17 14:10:00,
2013-09-17 10:15:00,53.4,41.5,30.42,NE,39,15.0,20.0,64,0.00,,,0.00,meteohub,2013-09-17 14:15:00,
2013-09-17 10:21:00,53.4,41.9,30.42,NE,42,15.0,20.0,65,0.00,,,0.00,meteohub,2013-09-17 14:21:00,
2013-09-17 10:26:00,53.4,41.5,30.42,NW,316,5.0,22.0,64,0.00,,,0.00,meteohub,2013-09-17 14:26:00,
2013-09-17 10:31:00,53.8,41.9,30.42,NNW,328,10.0,22.0,64,0.00,,,0.00,meteohub,2013-09-17 14:31:00,
2013-09-17 10:36:00,54.0,42.1,30.41,North,8,9.0,22.0,64,0.00,,,0.00,meteohub,2013-09-17 14:36:00,
2013-09-17 10:41:00,54.3,42.1,30.41,NE,51,9.0,20.0,63,0.00,,,0.00,meteohub,2013-09-17 14:41:00,
2013-09-17 10:46:00,54.3,42.4,30.41,North,4,9.0,17.0,64,0.00,,,0.00,meteohub,2013-09-17 14:46:00,
2013-09-17 10:51:00,54.0,41.2,30.41,North,354,9.0,20.0,62,0.00,,,0.00,meteohub,2013-09-17 14:51:00,
2013-09-17 10:56:00,54.1,42.3,30.41,NW,320,13.0,20.0,64,0.00,,,0.00,meteohub,2013-09-17 14:56:00,
2013-09-17 11:01:00,54.1,41.9,30.41,ENE,78,6.0,20.0,63,0.00,,,0.00,meteohub,2013-09-17 15:01:00,
2013-09-17 11:06:00,54.3,42.1,30.41,North,5,9.0,18.0,63,0.00,,,0.00,meteohub,2013-09-17 15:06:00,
2013-09-17 11:11:00,54.7,41.9,30.42,NNW,346,11.0,18.0,62,0.00,,,0.00,meteohub,2013-09-17 15:11:00,
2013-09-17 11:16:00,54.7,41.9,30.41,NNW,328,10.0,18.0,62,0.00,,,0.00,meteohub,2013-09-17 15:16:00,
2013-09-17 11:21:00,54.7,41.9,30.41,North,349,12.0,19.0,62,0.00,,,0.00,meteohub,2013-09-17 15:21:00,
2013-09-17 11:26:00,54.9,42.1,30.41,NNW,346,11.0,19.0,62,0.00,,,0.00,meteohub,2013-09-17 15:26:00,
2013-09-17 11:31:00,55.2,42.4,30.41,North,11,11.0,19.0,62,0.00,,,0.00,meteohub,2013-09-17 15:31:00,
2013-09-17 11:36:00,55.6,43.2,30.41,NNE,25,8.0,20.0,63,0.00,,,0.00,meteohub,2013-09-17 15:36:00,
2013-09-17 11:41:00,56.1,42.4,30.41,NE,44,8.0,20.0,60,0.00,,,0.00,meteohub,2013-09-17 15:41:00,
2013-09-17 11:46:00,55.8,41.7,30.41,North,11,12.0,20.0,59,0.00,,,0.00,meteohub,2013-09-17 15:46:00,
2013-09-17 11:51:00,55.8,40.8,30.42,NNE,15,9.0,19.0,57,0.00,,,0.00,meteohub,2013-09-17 15:51:00,
2013-09-17 11:56:00,55.8,40.8,30.42,East,91,11.0,19.0,57,0.00,,,0.00,meteohub,2013-09-17 15:56:00,
2013-09-17 12:01:00,55.9,40.5,30.42,NW,312,10.0,19.0,56,0.00,,,0.00,meteohub,2013-09-17 16:01:00,
2013-09-17 12:06:00,56.3,40.3,30.42,NE,41,16.0,18.0,55,0.00,,,0.00,meteohub,2013-09-17 16:06:00,
2013-09-17 12:11:00,56.3,40.3,30.42,NW,305,4.0,19.0,55,0.00,,,0.00,meteohub,2013-09-17 16:11:00,
2013-09-17 12:17:00,56.5,40.5,30.41,NW,308,13.0,19.0,55,0.00,,,0.00,meteohub,2013-09-17 16:17:00,
2013-09-17 12:22:00,56.5,40.1,30.41,ENE,77,10.0,21.0,54,0.00,,,0.00,meteohub,2013-09-17 16:22:00,
2013-09-17 12:27:00,56.7,40.3,30.41,East,100,7.0,21.0,54,0.00,,,0.00,meteohub,2013-09-17 16:27:00,
2013-09-17 12:32:00,56.8,40.5,30.41,NW,324,5.0,21.0,54,0.00,,,0.00,meteohub,2013-09-17 16:32:00,
2013-09-17 12:37:00,57.2,40.3,30.41,NNE,27,7.0,16.0,53,0.00,,,0.00,meteohub,2013-09-17 16:37:00,
2013-09-17 12:42:00,57.0,39.6,30.41,NE,39,7.0,17.0,52,0.00,,,0.00,meteohub,2013-09-17 16:42:00,
2013-09-17 12:47:00,57.0,39.6,30.41,NNW,345,9.0,20.0,52,0.00,,,0.00,meteohub,2013-09-17 16:47:00,
2013-09-17 12:52:00,57.0,39.6,30.41,NNE,20,11.0,20.0,52,0.00,,,0.00,meteohub,2013-09-17 16:52:00,
2013-09-17 12:57:00,57.6,39.6,30.41,NE,40,13.0,20.0,51,0.00,,,0.00,meteohub,2013-09-17 16:57:00,
2013-09-17 13:02:00,57.6,39.0,30.40,NNW,339,12.0,16.0,50,0.00,,,0.00,meteohub,2013-09-17 17:02:00,
2013-09-17 13:07:00,57.6,39.0,30.40,NW,325,9.0,15.0,50,0.00,,,0.00,meteohub,2013-09-17 17:07:00,
2013-09-17 13:12:00,57.7,40.3,30.40,ENE,74,4.0,16.0,52,0.00,,,0.00,meteohub,2013-09-17 17:12:00,
2013-09-17 13:17:00,58.3,40.3,30.40,NNW,339,6.0,16.0,51,0.00,,,0.00,meteohub,2013-09-17 17:17:00,
2013-09-17 13:22:00,57.7,39.2,30.40,NNW,342,1.0,16.0,50,0.00,,,0.00,meteohub,2013-09-17 17:22:00,
2013-09-17 13:27:00,57.7,39.2,30.40,NNE,25,3.0,16.0,50,0.00,,,0.00,meteohub,2013-09-17 17:27:00,
2013-09-17 13:32:00,57.9,39.4,30.40,NNE,15,2.0,16.0,50,0.00,,,0.00,meteohub,2013-09-17 17:32:00,
2013-09-17 13:37:00,58.5,40.5,30.39,NNW,336,7.0,15.0,51,0.00,,,0.00,meteohub,2013-09-17 17:37:00,
2013-09-17 13:42:00,58.3,39.7,30.39,NE,37,5.0,17.0,50,0.00,,,0.00,meteohub,2013-09-17 17:42:00,
2013-09-17 13:47:00,58.3,39.2,30.39,NNE,13,10.0,20.0,49,0.00,,,0.00,meteohub,2013-09-17 17:47:00,
2013-09-17 13:52:00,58.5,39.9,30.38,NE,54,0.0,20.0,50,0.00,,,0.00,meteohub,2013-09-17 17:52:00,
2013-09-17 13:57:00,58.3,39.7,30.38,NNE,16,10.0,20.0,50,0.00,,,0.00,meteohub,2013-09-17 17:57:00,
2013-09-17 14:02:00,58.5,39.4,30.38,North,7,5.0,17.0,49,0.00,,,0.00,meteohub,2013-09-17 18:02:00,
2013-09-17 14:07:00,58.8,40.3,30.38,NNE,13,10.0,15.0,50,0.00,,,0.00,meteohub,2013-09-17 18:07:00,
2013-09-17 14:12:00,58.8,40.3,30.38,NE,50,8.0,15.0,50,0.00,,,0.00,meteohub,2013-09-17 18:12:00,
2013-09-17 14:17:00,58.6,40.1,30.38,NNE,20,7.0,17.0,50,0.00,,,0.00,meteohub,2013-09-17 18:17:00,
2013-09-17 14:22:00,58.6,39.6,30.38,NNE,27,9.0,17.0,49,0.00,,,0.00,meteohub,2013-09-17 18:22:00,
2013-09-17 14:27:00,58.6,40.1,30.37,NNW,330,12.0,17.0,50,0.00,,,0.00,meteohub,2013-09-17 18:27:00,
2013-09-17 14:32:00,59.0,40.5,30.37,North,4,10.0,15.0,50,0.00,,,0.00,meteohub,2013-09-17 18:32:00,
2013-09-17 14:37:00,59.0,40.8,30.37,East,85,7.0,15.0,51,0.00,,,0.00,meteohub,2013-09-17 18:37:00,
2013-09-17 14:42:00,59.0,40.5,30.37,NNE,29,8.0,14.0,50,0.00,,,0.00,meteohub,2013-09-17 18:42:00,
2013-09-17 14:47:00,59.7,41.0,30.37,East,84,4.0,16.0,50,0.00,,,0.00,meteohub,2013-09-17 18:47:00,
2013-09-17 14:52:00,59.7,40.5,30.36,NNE,30,8.0,16.0,49,0.00,,,0.00,meteohub,2013-09-17 18:52:00,
2013-09-17 14:57:00,59.7,39.9,30.36,NE,47,15.0,15.0,48,0.00,,,0.00,meteohub,2013-09-17 18:57:00,
2013-09-17 15:02:00,59.7,40.5,30.36,NNE,22,8.0,17.0,49,0.00,,,0.00,meteohub,2013-09-17 19:02:00,
2013-09-17 15:07:00,59.7,39.9,30.36,NE,54,9.0,17.0,48,0.00,,,0.00,meteohub,2013-09-17 19:07:00,
2013-09-17 15:12:00,60.1,40.3,30.36,NNE,25,9.0,17.0,48,0.00,,,0.00,meteohub,2013-09-17 19:12:00,
2013-09-17 15:17:00,60.1,40.8,30.36,ENE,63,6.0,18.0,49,0.00,,,0.00,meteohub,2013-09-17 19:17:00,
2013-09-17 15:22:00,60.1,40.8,30.36,East,94,4.0,18.0,49,0.00,,,0.00,meteohub,2013-09-17 19:22:00,
2013-09-17 15:27:00,60.3,40.5,30.36,NE,44,12.0,18.0,48,0.00,,,0.00,meteohub,2013-09-17 19:27:00,
2013-09-17 15:32:00,60.1,39.2,30.36,North,7,3.0,18.0,46,0.00,,,0.00,meteohub,2013-09-17 19:32:00,
2013-09-17 15:37:00,60.1,39.2,30.36,NW,323,7.0,18.0,46,0.00,,,0.00,meteohub,2013-09-17 19:37:00,
2013-09-17 15:42:00,60.1,38.7,30.36,North,349,6.0,18.0,45,0.00,,,0.00,meteohub,2013-09-17 19:42:00,
2013-09-17 15:47:00,60.1,39.2,30.36,NNE,30,4.0,15.0,46,0.00,,,0.00,meteohub,2013-09-17 19:47:00,
2013-09-17 15:52:00,60.3,39.4,30.36,North,352,8.0,15.0,46,0.00,,,0.00,meteohub,2013-09-17 19:52:00,
2013-09-17 15:57:00,60.6,39.2,30.35,East,89,4.0,14.0,45,0.00,,,0.00,meteohub,2013-09-17 19:57:00,
2013-09-17 16:02:00,60.6,39.2,30.35,North,7,8.0,13.0,45,0.00,,,0.00,meteohub,2013-09-17 20:02:00,
2013-09-17 16:07:00,60.4,39.0,30.35,NNW,332,4.0,14.0,45,0.00,,,0.00,meteohub,2013-09-17 20:07:00,
2013-09-17 16:12:00,60.6,37.9,30.35,North,5,14.0,18.0,43,0.00,,,0.00,meteohub,2013-09-17 20:12:00,
2013-09-17 16:17:00,60.4,37.8,30.35,East,80,5.0,18.0,43,0.00,,,0.00,meteohub,2013-09-17 20:17:00,
2013-09-17 16:22:00,60.4,38.5,30.35,NNW,340,2.0,17.0,44,0.00,,,0.00,meteohub,2013-09-17 20:22:00,
2013-09-17 16:27:00,60.6,39.2,30.35,NNW,348,4.0,17.0,45,0.00,,,0.00,meteohub,2013-09-17 20:27:00,
2013-09-17 16:32:00,60.4,38.5,30.35,NW,323,2.0,15.0,44,0.00,,,0.00,meteohub,2013-09-17 20:32:00,
2013-09-17 16:37:00,60.4,37.8,30.36,ENE,57,4.0,15.0,43,0.00,,,0.00,meteohub,2013-09-17 20:37:00,
2013-09-17 16:42:00,60.4,37.8,30.36,NNE,30,13.0,15.0,43,0.00,,,0.00,meteohub,2013-09-17 20:42:00,
2013-09-17 16:47:00,60.3,37.8,30.35,NNW,346,13.0,16.0,43,0.00,,,0.00,meteohub,2013-09-17 20:47:00,
2013-09-17 16:52:00,60.4,37.8,30.35,North,5,3.0,16.0,43,0.00,,,0.00,meteohub,2013-09-17 20:52:00,
2013-09-17 16:57:00,60.3,37.0,30.36,NNE,27,1.0,16.0,42,0.00,,,0.00,meteohub,2013-09-17 20:57:00,
2013-09-17 17:02:00,60.1,36.9,30.36,NNE,29,11.0,14.0,42,0.00,,,0.00,meteohub,2013-09-17 21:02:00,
2013-09-17 17:07:00,60.1,37.6,30.35,NNW,342,0.0,14.0,43,0.00,,,0.00,meteohub,2013-09-17 21:07:00,
2013-09-17 17:12:00,60.4,39.0,30.36,ENE,58,9.0,13.0,45,0.00,,,0.00,meteohub,2013-09-17 21:12:00,
2013-09-17 17:17:00,60.3,38.3,30.36,NE,56,5.0,13.0,44,0.00,,,0.00,meteohub,2013-09-17 21:17:00,
2013-09-17 17:22:00,60.3,37.8,30.36,NNE,19,6.0,11.0,43,0.00,,,0.00,meteohub,2013-09-17 21:22:00,
2013-09-17 17:27:00,60.1,37.6,30.35,NNE,23,9.0,13.0,43,0.00,,,0.00,meteohub,2013-09-17 21:27:00,
2013-09-17 17:32:00,59.9,37.4,30.35,SSE,165,1.0,13.0,43,0.00,,,0.00,meteohub,2013-09-17 21:32:00,
2013-09-17 17:37:00,59.7,37.2,30.35,NNE,12,7.0,13.0,43,0.00,,,0.00,meteohub,2013-09-17 21:37:00,
2013-09-17 17:42:00,59.5,37.6,30.35,NW,314,0.0,13.0,44,0.00,,,0.00,meteohub,2013-09-17 21:42:00,
2013-09-17 17:46:00,59.5,37.6,30.35,NNE,17,5.0,13.0,44,0.00,,,0.00,meteohub,2013-09-17 21:46:00,
2013-09-17 17:52:00,59.5,38.1,30.35,North,349,4.0,13.0,45,0.00,,,0.00,meteohub,2013-09-17 21:52:00,
2013-09-17 17:57:00,59.5,38.1,30.36,ENE,60,4.0,9.0,45,0.00,,,0.00,meteohub,2013-09-17 21:57:00,
2013-09-17 18:02:00,59.5,38.1,30.35,ESE,106,0.0,8.0,45,0.00,,,0.00,meteohub,2013-09-17 22:02:00,
2013-09-17 18:07:00,59.4,38.7,30.36,ENE,64,6.0,8.0,46,0.00,,,0.00,meteohub,2013-09-17 22:07:00,
2013-09-17 18:12:00,59.2,39.0,30.36,NE,50,3.0,8.0,47,0.00,,,0.00,meteohub,2013-09-17 22:12:00,
2013-09-17 18:17:00,59.2,39.6,30.36,NW,325,0.0,7.0,48,0.00,,,0.00,meteohub,2013-09-17 22:17:00,
2013-09-17 18:22:00,59.4,39.7,30.36,ENE,67,2.0,7.0,48,0.00,,,0.00,meteohub,2013-09-17 22:22:00,
2013-09-17 18:27:00,59.0,40.8,30.36,ENE,77,0.0,7.0,51,0.00,,,0.00,meteohub,2013-09-17 22:27:00,
2013-09-17 18:32:00,58.5,41.4,30.36,East,83,0.0,3.0,53,0.00,,,0.00,meteohub,2013-09-17 22:32:00,
2013-09-17 18:37:00,57.7,40.6,30.36,East,82,0.0,3.0,53,0.00,,,0.00,meteohub,2013-09-17 22:37:00,
2013-09-17 18:42:00,57.4,41.4,30.36,East,83,0.0,3.0,55,0.00,,,0.00,meteohub,2013-09-17 22:42:00,
2013-09-17 18:47:00,56.8,41.4,30.35,ENE,63,2.0,3.0,56,0.00,,,0.00,meteohub,2013-09-17 22:47:00,
2013-09-17 18:52:00,56.3,40.8,30.35,NNE,29,3.0,3.0,56,0.00,,,0.00,meteohub,2013-09-17 22:52:00,
2013-09-17 18:57:00,55.9,41.0,30.35,ENE,58,0.0,4.0,57,0.00,,,0.00,meteohub,2013-09-17 22:57:00,
2013-09-17 19:02:00,55.6,41.5,30.35,NE,41,1.0,4.0,59,0.00,,,0.00,meteohub,2013-09-17 23:02:00,
2013-09-17 19:07:00,55.0,41.9,30.35,NE,37,0.0,4.0,61,0.00,,,0.00,meteohub,2013-09-17 23:07:00,
2013-09-17 19:12:00,54.9,42.1,30.35,NE,37,0.0,3.0,62,0.00,,,0.00,meteohub,2013-09-17 23:12:00,
2013-09-17 19:17:00,54.7,42.8,30.35,NE,37,0.0,3.0,64,0.00,,,0.00,meteohub,2013-09-17 23:17:00,
2013-09-17 19:22:00,54.0,42.8,30.35,NW,309,0.0,0.0,66,0.00,,,0.00,meteohub,2013-09-17 23:22:00,
2013-09-17 19:27:00,53.2,43.0,30.35,NNW,328,0.0,2.0,68,0.00,,,0.00,meteohub,2013-09-17 23:27:00,
2013-09-17 19:32:00,52.9,43.3,30.35,NNW,328,0.0,2.0,70,0.00,,,0.00,meteohub,2013-09-17 23:32:00,
2013-09-17 19:37:00,52.5,43.3,30.35,NW,321,0.0,1.0,71,0.00,,,0.00,meteohub,2013-09-17 23:37:00,
2013-09-17 19:42:00,52.2,43.3,30.35,NW,321,0.0,1.0,72,0.00,,,0.00,meteohub,2013-09-17 23:42:00,
2013-09-17 19:47:00,51.8,44.1,30.35,NW,321,0.0,1.0,75,0.00,,,0.00,meteohub,2013-09-17 23:47:00,
2013-09-17 19:53:00,51.1,43.7,30.35,NW,321,0.0,0.0,76,0.00,,,0.00,meteohub,2013-09-17 23:53:00,
2013-09-17 19:58:00,50.5,43.5,30.35,NW,321,0.0,0.0,77,0.00,,,0.00,meteohub,2013-09-17 23:58:00,
2013-09-17 20:03:00,50.2,43.5,30.36,NW,320,0.0,0.0,78,0.00,,,0.00,meteohub,2013-09-18 00:03:00,
2013-09-17 20:08:00,49.6,43.3,30.36,NW,321,0.0,0.0,79,0.00,,,0.00,meteohub,2013-09-18 00:08:00,
2013-09-17 20:13:00,49.3,43.3,30.36,NW,305,0.0,0.0,80,0.00,,,0.00,meteohub,2013-09-18 00:13:00,
2013-09-17 20:18:00,48.9,43.7,30.36,WNW,285,0.0,0.0,82,0.00,,,0.00,meteohub,2013-09-18 00:18:00,
2013-09-17 20:23:00,48.7,43.5,30.36,WNW,287,0.0,1.0,82,0.00,,,0.00,meteohub,2013-09-18 00:23:00,
2013-09-17 20:28:00,48.6,43.7,30.36,WNW,287,0.0,1.0,83,0.00,,,0.00,meteohub,2013-09-18 00:28:00,
2013-09-17 20:33:00,48.6,43.7,30.36,North,0,0.0,1.0,83,0.00,,,0.00,meteohub,2013-09-18 00:33:00,
2013-09-17 20:38:00,48.4,43.7,30.36,North,0,0.0,1.0,84,0.00,,,0.00,meteohub,2013-09-18 00:38:00,
2013-09-17 20:43:00,48.2,44.2,30.36,North,359,0.0,0.0,86,0.00,,,0.00,meteohub,2013-09-18 00:43:00,
2013-09-17 20:48:00,47.8,44.2,30.36,North,0,0.0,0.0,87,0.00,,,0.00,meteohub,2013-09-18 00:48:00,
2013-09-17 20:53:00,47.3,43.9,30.36,North,0,0.0,0.0,88,0.00,,,0.00,meteohub,2013-09-18 00:53:00,
2013-09-17 20:58:00,47.1,43.7,30.36,North,0,0.0,0.0,88,0.00,,,0.00,meteohub,2013-09-18 00:58:00,
2013-09-17 21:03:00,47.1,44.1,30.36,NW,318,0.0,0.0,89,0.00,,,0.00,meteohub,2013-09-18 01:03:00,
2013-09-17 21:08:00,47.1,44.1,30.36,NW,312,0.0,0.0,89,0.00,,,0.00,meteohub,2013-09-18 01:08:00,
2013-09-17 21:13:00,46.9,43.9,30.36,North,8,0.0,0.0,89,0.00,,,0.00,meteohub,2013-09-18 01:13:00,
2013-09-17 21:18:00,46.9,43.9,30.36,North,8,0.0,1.0,89,0.00,,,0.00,meteohub,2013-09-18 01:18:00,
2013-09-17 21:23:00,46.8,43.7,30.36,WNW,288,0.0,1.0,89,0.00,,,0.00,meteohub,2013-09-18 01:23:00,
2013-09-17 21:28:00,46.4,43.7,30.36,WNW,289,0.0,1.0,90,0.00,,,0.00,meteohub,2013-09-18 01:28:00,
2013-09-17 21:33:00,46.2,43.5,30.36,NW,319,0.0,1.0,90,0.00,,,0.00,meteohub,2013-09-18 01:33:00,
2013-09-17 21:38:00,46.2,43.5,30.36,NNW,336,0.0,1.0,90,0.00,,,0.00,meteohub,2013-09-18 01:38:00,
2013-09-17 21:43:00,46.0,43.3,30.36,NNW,333,0.0,0.0,90,0.00,,,0.00,meteohub,2013-09-18 01:43:00,
2013-09-17 21:48:00,46.0,43.5,30.36,NNW,334,0.0,0.0,91,0.00,,,0.00,meteohub,2013-09-18 01:48:00,
2013-09-17 21:53:00,46.0,43.5,30.36,NNW,334,0.0,0.0,91,0.00,,,0.00,meteohub,2013-09-18 01:53:00,
2013-09-17 21:58:00,45.9,43.3,30.36,NNW,335,0.0,0.0,91,0.00,,,0.00,meteohub,2013-09-18 01:58:00,
2013-09-17 22:03:00,45.7,43.2,30.36,WNW,302,0.0,0.0,91,0.00,,,0.00,meteohub,2013-09-18 02:03:00,
2013-09-17 22:08:00,45.7,43.2,30.36,NW,304,0.0,0.0,91,0.00,,,0.00,meteohub,2013-09-18 02:08:00,
2013-09-17 22:13:00,45.7,43.5,30.37,NW,322,0.0,0.0,92,0.00,,,0.00,meteohub,2013-09-18 02:13:00,
2013-09-17 22:18:00,45.3,43.2,30.37,NW,321,0.0,0.0,92,0.00,,,0.00,meteohub,2013-09-18 02:18:00,
2013-09-17 22:23:00,45.3,43.2,30.37,ENE,63,0.0,0.0,92,0.00,,,0.00,meteohub,2013-09-18 02:23:00,
2013-09-17 22:28:00,45.1,43.0,30.36,ENE,63,0.0,0.0,92,0.00,,,0.00,meteohub,2013-09-18 02:28:00,
2013-09-17 22:33:00,45.0,42.8,30.36,ENE,63,0.0,0.0,92,0.00,,,0.00,meteohub,2013-09-18 02:33:00,
2013-09-17 22:38:00,45.0,43.0,30.36,ENE,63,0.0,0.0,93,0.00,,,0.00,meteohub,2013-09-18 02:38:00,
2013-09-17 22:43:00,44.8,42.8,30.36,North,5,0.0,0.0,93,0.00,,,0.00,meteohub,2013-09-18 02:43:00,
2013-09-17 22:49:00,44.8,42.8,30.36,NNW,330,0.0,2.0,93,0.00,,,0.00,meteohub,2013-09-18 02:49:00,
2013-09-17 22:54:00,44.8,42.8,30.36,NNW,340,0.0,2.0,93,0.00,,,0.00,meteohub,2013-09-18 02:54:00,
2013-09-17 22:59:00,44.8,42.8,30.36,WNW,298,0.0,2.0,93,0.00,,,0.00,meteohub,2013-09-18 02:59:00,
2013-09-17 23:04:00,44.4,42.4,30.36,WNW,290,0.0,1.0,93,0.00,,,0.00,meteohub,2013-09-18 03:04:00,
2013-09-17 23:09:00,44.2,42.3,30.36,WNW,293,0.0,1.0,93,0.00,,,0.00,meteohub,2013-09-18 03:09:00,
2013-09-17 23:14:00,44.2,42.3,30.36,North,7,0.0,1.0,93,0.00,,,0.00,meteohub,2013-09-18 03:14:00,
2013-09-17 23:19:00,44.1,42.4,30.36,North,8,0.0,1.0,94,0.00,,,0.00,meteohub,2013-09-18 03:19:00,
2013-09-17 23:24:00,44.1,42.4,30.36,North,8,0.0,1.0,94,0.00,,,0.00,meteohub,2013-09-18 03:24:00,
2013-09-17 23:29:00,44.1,42.4,30.36,North,8,0.0,1.0,94,0.00,,,0.00,meteohub,2013-09-18 03:29:00,
2013-09-17 23:34:00,44.1,42.4,30.36,North,8,0.0,0.0,94,0.00,,,0.00,meteohub,2013-09-18 03:34:00,
2013-09-17 23:39:00,43.9,42.3,30.36,North,8,0.0,0.0,94,0.00,,,0.00,meteohub,2013-09-18 03:39:00,
2013-09-17 23:44:00,43.7,42.1,30.36,North,8,0.0,0.0,94,0.00,,,0.00,meteohub,2013-09-18 03:44:00,
2013-09-17 23:49:00,43.5,41.9,30.36,North,7,0.0,0.0,94,0.00,,,0.00,meteohub,2013-09-18 03:49:00,
2013-09-17 23:54:00,43.5,41.9,30.36,NNW,340,0.0,0.0,94,0.00,,,0.00,meteohub,2013-09-18 03:54:00,
2013-09-17 23:59:00,43.3,41.7,30.36,NNW,347,0.0,1.0,94,0.00,,,0.00,meteohub,2013-09-18 03:59:00,